Погода в Чойре

Монголия     46°21′13″N   108°22′21″E
темп.,
°C
ветер,
м/с
пор.,
м/с
влажн.,
%
обл.,
%
осадки,
мм/ч
давл.,
гПа
погр.,
м
17 мая, вт
вт1723:00+13ссв8143723 0.0 1007411
02:00+11ссз411460 0.0 1008517
05:00+9ссз36460 0.0 1010119
08:00+13ссз35345 0.0 1011311
11:00+18ссз462315 0.0 10102022
14:00+20ссз5615100 0.0 10082230
17:00+21с451485 0.0 10072478
20:00+18в1121100 0.0 100811
18 мая, ср
ср1823:00+17всв2325100 0.0 101039
02:00+15св1126100 0.0 101011
05:00+13св453899 0.0 101156
08:00+16всв673781 0.0 1012392
11:00+21юв542280 0.0 10101515
14:00+23юв431866 0.0 10092361
17:00+23юв2216100 0.0 10072741
20:00+16св811457 0.0 1010287
19 мая, чт
чт1923:00+16с4844100 0.1 1011164
02:00+13ссв235353 0.4 101356
05:00+13ссв34480 0.1 101450
08:00+17всв35350 0.1 1015364
11:00+21юв23230 0.0 10141828
14:00+23ю11185 0.0 10122541
17:00+24з12155 0.0 10103045
20:00+22в12190 0.0 101011
20 мая, пт
пт2023:00+19ююв11234 0.0 101111
02:00+17ю22235 0.0 101111
05:00+16юз33255 0.0 101119
08:00+19зсз132084 0.0 1012281
11:00+24юз351593 0.0 10101878
14:00+27зюз4513100 0.0 10073973
17:00+24ю341933 0.1 1005644
20:00+21юв332662 0.6 100540
21 мая, сб
сб2123:00+19ю003151 0.1 100611
02:00+18св332995 0.1 100737
05:00+15вюв12425 0.0 100712
08:00+19в12321 0.0 1007210
11:00+24юв21215 0.0 10061192
14:00+27зюз24175 0.0 10043476
17:00+26зюз9619100 0.0 10013084
20:00+19ссз81239100 2.2 1005576